Sheridan, WY

7:17 PM MDT on June 24, 2017 (GMT -0600)
Sheridan County

Weather History for KSHR - May, 2013

Change the Weather History Date:

Tuesday, May 21, 2013

  Actual Average Record
Temperature  
Mean Temperature 55 °F 54 °F  
Max Temperature 65 °F 68 °F 88 °F (1960)
Min Temperature 45 °F 40 °F 26 °F (1963)
Degree Days  
Heating Degree Days 10 11  
Month to date heating degree days 241 295  
Since 1 July heating degree days 7333 7396  
Cooling Degree Days 0 0  
Month to date cooling degree days 8 0  
Year to date cooling degree days 8 0  
Growing Degree Days 5 (Base 50)    
Moisture  
Dew Point 38 °F    
Average Humidity 58    
Maximum Humidity 82    
Minimum Humidity 34    
Precipitation  
Precipitation 0.00 in 0.08 in 1.31 in (1981)
Month to date precipitation 1.21 1.60  
Year to date precipitation 5.50 5.28  
Sea Level Pressure  
Sea Level Pressure 29.99 in    
Wind  
Wind Speed 11 mph (NNW)    
Max Wind Speed 24 mph    
Max Gust Speed 29 mph    
Visibility 10 miles    
Events      
T = Trace of Precipitation, MM = Missing Value Source: NWS Daily Summary

Daily Weather History Graph

Daily Weather History Graph

Search for Another Location

Airport or City:

Trip Planner

Search our weather history database for the weather conditions in past years. The results will help you decide how hot, cold, wet, or windy it might be!

Date:

Astronomy

May. 21, 2013 Rise Set
Actual Time 5:33 AM MDT 8:36 PM MDT
Civil Twilight 4:58 AM MDT 9:11 PM MDT
Nautical Twilight 4:13 AM MDT 9:56 PM MDT
Astronomical Twilight 3:20 AM MDT 10:50 PM MDT
Moon 4:45 PM MDT (5/21) 3:12 AM MDT (5/21)
Length of Visible Light 16h 13m
Length of Day
15h 03m
Waxing Gibbous, 84% of the Moon is Illuminated
May 21
Waxing Gibbous
May 24
Full
May 31
Last Quarter
Jun 8
New
Jun 16
First Quarter

Hourly Weather History & Observations

Time (MDT) Temp. Dew Point Humidity Pressure Visibility Wind Dir Wind Speed Gust Speed Precip Events Conditions
12:53 AM 46.9 °F 39.9 °F 77% 30.08 in 10.0 mi WNW 11.5 mph - N/A   Overcast
1:53 AM 48.0 °F 39.9 °F 74% 30.06 in 10.0 mi West 11.5 mph - N/A   Mostly Cloudy
2:53 AM 46.9 °F 39.0 °F 74% 30.04 in 10.0 mi West 11.5 mph - N/A   Clear
3:53 AM 46.9 °F 39.0 °F 74% 30.04 in 10.0 mi West 12.7 mph - N/A   Clear
4:53 AM 46.9 °F 39.0 °F 74% 30.04 in 10.0 mi West 11.5 mph - N/A   Scattered Clouds
5:53 AM 46.9 °F 37.9 °F 71% 30.06 in 10.0 mi West 12.7 mph - N/A   Overcast
6:53 AM 48.0 °F 35.1 °F 61% 30.06 in 10.0 mi WNW 10.4 mph - N/A   Clear
7:53 AM 53.1 °F 35.1 °F 50% 30.05 in 10.0 mi WNW 12.7 mph - N/A   Clear
8:53 AM 55.9 °F 35.1 °F 45% 30.03 in 10.0 mi NW 13.8 mph - N/A   Clear
9:53 AM 57.9 °F 35.1 °F 42% 30.01 in 10.0 mi NW 20.7 mph - N/A   Clear
10:53 AM 59.0 °F 34.0 °F 39% 30.00 in 10.0 mi WNW 18.4 mph - N/A   Clear
11:53 AM 60.1 °F 36.0 °F 41% 29.99 in 10.0 mi NNW 20.7 mph 25.3 mph N/A   Scattered Clouds
12:53 PM 62.1 °F 35.1 °F 37% 29.97 in 10.0 mi NNW 12.7 mph 24.2 mph N/A   Scattered Clouds
1:53 PM 61.0 °F 37.0 °F 41% 29.95 in 10.0 mi NW 15.0 mph 25.3 mph N/A   Scattered Clouds
2:53 PM 63.0 °F 36.0 °F 37% 29.94 in 10.0 mi North 18.4 mph 24.2 mph N/A   Clear
3:53 PM 63.0 °F 33.1 °F 33% 29.93 in 10.0 mi North 12.7 mph - N/A   Clear
4:53 PM 63.0 °F 36.0 °F 37% 29.91 in 10.0 mi NNE 9.2 mph - N/A   Clear
5:53 PM 60.1 °F 39.0 °F 46% 29.92 in 10.0 mi NNE 15.0 mph 21.9 mph N/A   Clear
6:53 PM 57.9 °F 39.0 °F 49% 29.94 in 10.0 mi NNE 11.5 mph - N/A   Clear
7:53 PM 53.1 °F 41.0 °F 64% 29.95 in 10.0 mi NE 5.8 mph - N/A   Partly Cloudy
8:53 PM 50.0 °F 41.0 °F 71% 29.97 in 10.0 mi NE 10.4 mph - N/A   Overcast
9:53 PM 48.9 °F 41.0 °F 74% 29.98 in 10.0 mi NE 3.5 mph - N/A   Overcast
10:53 PM 48.0 °F 39.9 °F 74% 29.98 in 10.0 mi Calm Calm - N/A   Overcast
11:53 PM 46.9 °F 41.0 °F 80% 29.96 in 10.0 mi East 3.5 mph - N/A   Overcast